Flag for Canada Weather past 2 weeks in London, Ontario, Canada

34 °F


Feels Like: 24 °F
Forecast: 30 / 47 °F
Wind: 14 mph from East

Location: London Weather Station

Current Time: Dec 1, 2015 at 1:56:02 AM

Latest Report: Dec 1, 2015 at 1:00 AM

Visibility: 15 mi

Pressure: 30.11 "Hg

Humidity: 93%

Dew point: 32 °F

Location of LondonLocation

Historic Weather in London — Graph


London temperature yesterday

Maximum temperature yesterday: 39 °F (at 1:00 PM)
Minimum temperature yesterday: 27 °F (at 12:00 AM)
Average temperature yesterday: 32 °F

Past Weeks' High & Low Weather Summary

High61 °F (Nov 16, 3:00 PM)100% (Nov 21, 10:00 AM)30.54 "Hg (Nov 21, 10:00 AM)
Low18 °F (Nov 23, 2:00 AM)39% (Nov 19, 8:00 PM)29.63 "Hg (Nov 21, 10:00 PM)
Average39 °F78%30.21 "Hg
* Reported Midnight between Nov 15 and Nov 16 — Midnight between Nov 30 and Dec 1, London, Weather by CustomWeather, © 2015

Note: Actual official high and low records may vary slightly from our data, if they occured in-between our weather recording intervals... More about our weather records


London weather history for previous 24 hours

Time TempWeatherWind HumidityBarometerVisibility
12:00 AM
Tue, Dec 1
34 °FMostly cloudy.14 mph87%30.14 "Hg15 mi
11:00 PM
Mon, Nov 30
32 °FPassing clouds.13 mph87%30.16 "Hg15 mi
10:00 PM32 °FPassing clouds.13 mph87%30.19 "Hg15 mi
9:00 PM32 °FPassing clouds.15 mph87%30.21 "Hg15 mi
8:00 PM32 °FMostly cloudy.15 mph87%30.23 "Hg15 mi
7:00 PM32 °FPassing clouds.15 mph80%30.23 "Hg15 mi
6:00 PM34 °FPassing clouds.13 mph81%30.24 "Hg15 mi
5:00 PM34 °FPassing clouds.8 mph81%30.24 "Hg15 mi
4:00 PM39 °FScattered clouds.7 mph70%30.24 "Hg15 mi
3:00 PM39 °FPassing clouds.8 mph65%30.24 "Hg15 mi
2:00 PM39 °FPassing clouds.7 mph65%30.27 "Hg15 mi
1:00 PM39 °FPassing clouds.10 mph65%30.29 "Hg15 mi
12:00 PM37 °FPassing clouds.14 mph70%30.31 "Hg15 mi
11:00 AM36 °FPassing clouds.18 mph75%30.33 "Hg15 mi
10:00 AM34 °FScattered clouds.14 mph75%30.34 "Hg15 mi
9:00 AM30 °FPassing clouds.13 mph86%30.34 "Hg15 mi
8:00 AM27 °FPassing clouds.9 mph93%30.35 "Hg15 mi
7:00 AM27 °FPassing clouds.8 mph93%30.36 "Hg15 mi
6:00 AM27 °FClear.7 mph93%30.36 "Hg15 mi
5:00 AM27 °FClear.9 mph86%30.36 "Hg15 mi
4:00 AM27 °FClear.6 mph86%30.37 "Hg15 mi
3:00 AM27 °FClear.8 mph93%30.38 "Hg15 mi
2:00 AM27 °FClear.7 mph93%30.39 "Hg15 mi
1:00 AM27 °FClear.5 mph93%30.39 "Hg15 mi
Weather by CustomWeather, © 2015

See weather overviewHow to use our weather pages